Location: Carnoy
(49.9849°N, 2.7558°E)
Time: 10:07:01
(UTC+00:00)

CZ-4B R/B - Pass Details

Date: 24 January 2020
Orbit: 808 x 882 km, 99.1° (Epoch: 18 February)

Event Time Altitude Azimuth Distance (km) Brightness Sun altitude
Rises 16:55:31 0° 178° (S) 3,464 6.7 -4.6°
Reaches altitude 10° 16:57:58 10° 184° (S) 2,534 6.1 -5.0°
Maximum altitude 17:03:27 51° 260° (W) 1,098 4.4 -5.8°
Drops below altitude 10° 17:08:59 10° 336° (NNW) 2,546 5.7 -6.6°
Sets 17:11:28 0° 341° (NNW) 3,484 6.4 -7.0°
